TimeCST,TemperatureF,Dew PointF,Humidity,Sea Level PressureIn,VisibilityMPH,Wind Direction,Wind SpeedMPH,Gust SpeedMPH,PrecipitationIn,Events,Conditions,WindDirDegrees,DateUTC
12:15 AM,28.4,26.6,93,30.03,10.0,Calm,Calm,-,N/A,,Clear,0,2012-11-17 06:15:00
12:35 AM,28.4,24.8,86,30.03,10.0,South,4.6,-,N/A,,Clear,190,2012-11-17 06:35:00
12:55 AM,28.4,24.8,86,30.03,10.0,Calm,Calm,-,N/A,,Clear,0,2012-11-17 06:55:00
1:15 AM,28.4,24.8,86,30.03,10.0,South,3.5,-,N/A,,Clear,190,2012-11-17 07:15:00
1:35 AM,24.8,23.0,93,30.03,10.0,Calm,Calm,-,N/A,,Clear,0,2012-11-17 07:35:00
1:55 AM,24.8,24.8,100,30.03,10.0,Calm,Calm,-,N/A,,Clear,0,2012-11-17 07:55:00
2:15 AM,26.6,24.8,93,30.03,10.0,South,4.6,-,N/A,,Clear,190,2012-11-17 08:15:00
2:35 AM,26.6,24.8,93,30.03,10.0,Calm,Calm,-,N/A,,Clear,0,2012-11-17 08:35:00
2:55 AM,26.6,24.8,93,30.03,10.0,South,4.6,-,N/A,,Clear,190,2012-11-17 08:55:00
3:15 AM,23.0,23.0,100,30.03,10.0,Calm,Calm,-,N/A,,Clear,0,2012-11-17 09:15:00
3:55 AM,23.0,23.0,100,30.02,10.0,South,3.5,-,N/A,,Clear,180,2012-11-17 09:55:00
4:15 AM,19.4,19.4,100,30.02,10.0,South,4.6,-,N/A,,Clear,180,2012-11-17 10:15:00
4:35 AM,23.0,23.0,100,30.02,10.0,South,3.5,-,N/A,,Clear,170,2012-11-17 10:35:00
4:55 AM,23.0,23.0,100,30.02,10.0,SW,3.5,-,N/A,,Clear,230,2012-11-17 10:55:00
5:15 AM,23.0,23.0,100,30.02,10.0,West,4.6,-,N/A,,Clear,270,2012-11-17 11:15:00
5:35 AM,23.0,23.0,100,30.03,10.0,WNW,4.6,-,N/A,,Clear,290,2012-11-17 11:35:00
5:55 AM,24.8,24.8,100,30.03,10.0,West,3.5,-,N/A,,Clear,270,2012-11-17 11:55:00
6:15 AM,24.8,24.8,100,30.03,10.0,Calm,Calm,-,N/A,,Clear,0,2012-11-17 12:15:00
6:35 AM,23.0,23.0,100,30.03,10.0,WNW,3.5,-,N/A,,Partly Cloudy,300,2012-11-17 12:35:00
6:55 AM,21.2,21.2,100,30.04,9.0,Calm,Calm,-,N/A,,Scattered Clouds,0,2012-11-17 12:55:00
7:15 AM,23.0,23.0,100,30.04,8.0,NW,4.6,-,N/A,,Partly Cloudy,310,2012-11-17 13:15:00
7:35 AM,17.6,17.6,100,30.05,3.0,Calm,Calm,-,N/A,,Mostly Cloudy,0,2012-11-17 13:35:00
7:55 AM,21.2,21.2,100,30.06,5.0,NW,4.6,-,N/A,,Overcast,310,2012-11-17 13:55:00
8:15 AM,21.2,21.2,100,30.07,8.0,WNW,3.5,-,N/A,,Scattered Clouds,300,2012-11-17 14:15:00
8:35 AM,21.2,21.2,100,30.07,10.0,NNW,4.6,-,N/A,,Clear,330,2012-11-17 14:35:00
8:55 AM,23.0,23.0,100,30.07,10.0,Calm,Calm,-,N/A,,Clear,0,2012-11-17 14:55:00
9:15 AM,23.0,23.0,100,30.08,9.0,NW,3.5,-,N/A,,Scattered Clouds,310,2012-11-17 15:15:00
9:35 AM,24.8,24.8,100,30.09,9.0,North,3.5,-,N/A,,Scattered Clouds,350,2012-11-17 15:35:00
9:55 AM,24.8,24.8,100,30.10,9.0,NNW,3.5,-,N/A,,Mostly Cloudy,330,2012-11-17 15:55:00
10:15 AM,26.6,26.6,100,30.10,10.0,NNW,3.5,-,N/A,,Mostly Cloudy,330,2012-11-17 16:15:00
10:35 AM,26.6,26.6,100,30.11,10.0,NW,4.6,-,N/A,,Overcast,320,2012-11-17 16:35:00
11:55 AM,28.4,28.4,100,30.09,10.0,North,6.9,-,N/A,,Clear,350,2012-11-17 17:55:00
12:15 PM,28.4,28.4,100,30.09,10.0,North,6.9,-,N/A,,Clear,360,2012-11-17 18:15:00
12:35 PM,28.4,28.4,100,30.08,10.0,North,6.9,-,N/A,,Clear,10,2012-11-17 18:35:00
12:55 PM,28.4,28.4,100,30.08,10.0,North,5.8,-,N/A,,Clear,10,2012-11-17 18:55:00
1:15 PM,30.2,28.4,93,30.08,10.0,North,8.1,-,N/A,,Clear,360,2012-11-17 19:15:00
1:35 PM,30.2,30.2,100,30.07,10.0,North,6.9,-,N/A,,Clear,10,2012-11-17 19:35:00
1:55 PM,32.0,28.4,87,30.07,10.0,Calm,Calm,-,N/A,,Clear,0,2012-11-17 19:55:00
2:15 PM,32.0,28.4,87,30.07,10.0,Calm,Calm,-,N/A,,Clear,0,2012-11-17 20:15:00
2:35 PM,30.2,28.4,93,30.07,10.0,Calm,Calm,-,N/A,,Scattered Clouds,0,2012-11-17 20:35:00
2:55 PM,32.0,28.4,87,30.06,10.0,Calm,Calm,-,N/A,,Mostly Cloudy,0,2012-11-17 20:55:00
3:15 PM,32.0,30.2,93,30.07,10.0,Calm,Calm,-,N/A,,Partly Cloudy,0,2012-11-17 21:15:00
3:35 PM,32.0,30.2,93,30.07,10.0,Calm,Calm,-,N/A,,Clear,0,2012-11-17 21:35:00
3:55 PM,28.4,28.4,100,30.07,10.0,NNE,4.6,-,N/A,,Partly Cloudy,30,2012-11-17 21:55:00
4:15 PM,28.4,28.4,100,30.08,10.0,East,4.6,-,N/A,,Partly Cloudy,80,2012-11-17 22:15:00
4:35 PM,28.4,28.4,100,30.08,10.0,ENE,3.5,-,N/A,,Scattered Clouds,70,2012-11-17 22:35:00
4:55 PM,26.6,26.6,100,30.08,9.0,East,4.6,-,N/A,,Mostly Cloudy,80,2012-11-17 22:55:00
5:15 PM,26.6,26.6,100,30.08,9.0,Calm,Calm,-,N/A,,Overcast,0,2012-11-17 23:15:00
5:35 PM,26.6,26.6,100,30.08,10.0,Calm,Calm,-,N/A,,Overcast,0,2012-11-17 23:35:00
5:55 PM,24.8,24.8,100,30.09,8.0,Calm,Calm,-,N/A,,Overcast,0,2012-11-17 23:55:00
6:15 PM,24.8,24.8,100,30.09,7.0,North,3.5,-,N/A,,Overcast,10,2012-11-18 00:15:00
6:35 PM,23.0,23.0,100,30.08,5.0,Calm,Calm,-,N/A,,Overcast,0,2012-11-18 00:35:00
6:55 PM,23.0,23.0,100,30.08,3.0,North,4.6,-,N/A,,Mostly Cloudy,350,2012-11-18 00:55:00
7:15 PM,21.2,21.2,100,30.08,2.0,NW,3.5,-,N/A,,Scattered Clouds,320,2012-11-18 01:15:00
7:35 PM,21.2,21.2,100,30.08,1.5,NNW,5.8,-,N/A,,Clear,330,2012-11-18 01:35:00
7:55 PM,17.6,17.6,100,30.08,3.0,North,3.5,-,N/A,,Mostly Cloudy,350,2012-11-18 01:55:00
8:15 PM,19.4,19.4,100,30.08,0.2,Calm,Calm,-,N/A,Fog,Light Freezing Fog,0,2012-11-18 02:15:00
8:35 PM,19.4,19.4,100,30.08,0.2,Calm,Calm,-,N/A,Fog,Light Freezing Fog,0,2012-11-18 02:35:00
8:55 PM,19.4,19.4,100,30.08,0.2,Calm,Calm,-,N/A,Fog,Light Freezing Fog,0,2012-11-18 02:55:00
9:15 PM,19.4,19.4,100,30.07,0.2,Calm,Calm,-,N/A,Fog,Light Freezing Fog,0,2012-11-18 03:15:00
9:35 PM,19.4,19.4,100,30.07,0.2,Calm,Calm,-,N/A,Fog,Light Freezing Fog,0,2012-11-18 03:35:00
9:55 PM,19.4,19.4,100,30.07,0.2,Calm,Calm,-,N/A,Fog,Light Freezing Fog,0,2012-11-18 03:55:00
10:15 PM,19.4,19.4,100,30.07,0.8,North,3.5,-,N/A,,Overcast,360,2012-11-18 04:15:00
10:35 PM,19.4,19.4,100,30.07,0.8,Calm,Calm,-,N/A,,Overcast,0,2012-11-18 04:35:00
10:55 PM,19.4,19.4,100,30.06,0.8,Calm,Calm,-,N/A,,Overcast,0,2012-11-18 04:55:00
11:15 PM,19.4,19.4,100,30.06,0.2,Calm,Calm,-,N/A,Fog,Light Freezing Fog,0,2012-11-18 05:15:00
11:35 PM,19.4,19.4,100,30.05,0.2,Calm,Calm,-,N/A,Fog,Light Freezing Fog,0,2012-11-18 05:35:00
11:55 PM,19.4,19.4,100,30.05,0.2,Calm,Calm,-,N/A,Fog,Light Freezing Fog,0,2012-11-18 05:55:00